Theta_e
309 308 308 308 308 308 308 308 308 308 308 308 308 308 308 308 308 308 309 309 308 308 308 308 309 309 309 309 309 309 308 308 308 308 308 308 308 307 307 308 308 307 307 307 307 307 307 308 307 307 307 307 307 307 307 307 307 307 307 307 308 308
309 308 308 308 307 307 307 307 307 307 307 307 307 307 307 307 307 308 308 308 308 308 308 308 308 308 308 308 308 308 307 307 306 306 306 306 306 307 306 307 306 306 306 306 306 306 306 306 306 306 306 306 306 306 305 305 304 304 304 304 304 304
308 307 307 307 307 307 307 307 307 307 307 307 307 307 307 307 307 308 308 308 308 308 308 308 308 307 307 307 307 307 306 306 306 306 305 306 306 306 306 306 306 306 305 305 305 305 305 305 305 304 304 304 304 304 304 304 303 303 303 303 303 303
308 307 307 307 306 306 306 306 306 306 306 306 306 306 306 306 306 306 307 307 307 307 307 306 306 306 306 306 306 306 306 306 305 305 305 305 305 305 305 305 305 304 304 304 304 304 304 303 303 303 303 303 303 303 303 302 302 302 302 302 302 302
307 307 307 306 306 306 305 305 305 304 304 304 305 305 305 304 304 304 305 305 305 305 305 305 305 305 305 306 305 305 305 304 304 304 304 303 303 302 302 301 301 301 301 301 301 301 301 301 301 301 301 301 301 301 301 301 301 301 301 301 301 301
307 307 307 306 305 305 304 304 304 303 303 303 304 304 303 303 303 304 304 304 304 304 304 304 304 304 304 303 302 302 301 301 300 300 300 300 299 299 299 298 298 298 298 298 298 299 298 298 298 299 299 299 300 299 299 299 299 299 299 299 299 299
307 307 306 305 305 304 304 303 303 303 303 302 303 303 303 303 303 303 303 303 303 302 302 301 301 301 300 299 299 299 298 298 298 298 298 297 297 297 297 297 297 297 297 297 297 297 297 297 297 297 298 298 298 298 298 298 298 298 298 298 298 298
306 306 305 305 304 303 303 302 302 302 302 302 302 302 302 302 301 301 300 300 300 299 299 299 298 298 298 297 297 297 297 297 296 296 296 296 296 296 295 295 295 295 295 295 295 295 295 295 295 296 296 297 297 297 297 298 298 298 298 298 298 298
305 305 304 304 303 303 302 301 301 301 301 301 301 301 300 300 299 299 298 298 298 298 298 297 297 297 296 296 296 295 295 295 295 295 295 295 295 294 294 294 294 294 294 294 294 294 294 294 294 294 295 295 296 296 296 296 296 296 296 296 296 296
305 303 303 303 302 301 301 301 300 300 299 299 299 299 299 298 298 298 297 297 297 297 296 296 296 296 295 295 295 295 295 294 294 294 294 294 294 294 294 294 294 294 294 293 293 293 293 293 293 293 293 293 294 294 295 295 295 295 295 295 295 295
304 302 302 302 301 301 300 300 299 299 298 298 298 298 298 298 297 297 297 297 296 296 296 295 295 295 295 294 294 294 294 294 294 294 294 294 293 293 293 293 293 293 293 293 293 292 292 292 292 292 292 292 292 292 293 293 293 293 293 293 293 293
302 301 302 301 300 300 300 299 298 298 297 297 297 297 297 297 297 296 296 296 295 295 295 295 294 294 294 294 293 293 293 293 293 293 293 293 293 293 293 293 293 292 292 292 292 292 292 291 291 291 291 291 291 291 291 291 291 291 291 292 292 292
302 301 301 301 300 300 299 298 298 297 297 297 297 297 296 296 296 295 295 295 294 294 294 294 294 293 293 293 293 293 293 293 293 293 293 293 293 292 292 292 292 292 291 291 291 291 291 291 290 290 290 290 290 290 290 290 290 290 290 290 291 291
301 300 300 300 300 299 298 298 297 296 296 296 296 296 295 295 295 294 294 294 293 293 293 293 293 293 293 293 292 292 292 292 292 292 292 292 292 291 291 291 291 290 290 290 290 290 290 290 290 290 289 289 289 289 289 289 289 289 289 290 290 290
301 300 300 299 299 298 298 297 296 296 295 295 295 295 294 294 293 293 293 293 293 293 293 292 293 292 292 292 292 292 292 292 292 291 291 291 291 290 290 290 290 290 289 289 289 289 289 289 289 289 289 289 289 289 289 289 289 289 289 289 289 289
300 299 299 298 298 298 297 296 296 295 295 294 294 293 293 293 293 293 293 292 292 292 292 292 292 292 291 291 291 291 291 291 290 290 290 289 289 289 289 289 289 289 289 289 288 288 289 289 289 289 289 289 289 289 289 289 289 289 289 289 289 289
299 298 298 297 297 297 296 296 295 294 293 293 293 293 292 293 293 292 292 292 291 291 291 291 291 290 290 290 290 290 290 290 289 289 289 289 288 288 288 288 288 288 288 288 288 288 288 288 288 288 288 288 288 288 288 288 288 288 288 289 289 289
298 297 296 296 296 296 295 294 294 293 292 292 292 292 292 292 292 291 291 290 290 289 289 290 290 290 289 289 289 289 289 289 288 288 288 288 288 288 288 288 288 288 288 288 288 288 288 289 288 288 288 288 288 288 288 288 288 288 288 288 288 288
297 296 296 295 295 295 294 293 293 292 292 292 291 291 291 291 290 289 289 288 288 288 288 289 289 289 289 289 289 288 288 288 288 287 287 287 288 288 288 288 288 288 288 288 288 288 288 288 288 288 288 288 288 288 288 287 288 288 288 288 288 288
296 295 295 295 294 294 293 292 292 292 292 291 290 290 289 289 288 288 287 286 286 287 287 288 288 288 288 288 288 288 287 287 287 287 287 287 287 288 288 287 288 288 288 288 288 288 287 288 288 287 287 287 287 287 287 287 287 287 287 287 287 287
295 294 294 294 293 293 292 292 292 291 291 290 289 288 287 287 286 286 286 285 286 286 287 287 288 287 288 287 287 286 286 287 287 287 287 287 287 287 287 287 287 287 288 287 287 287 287 287 287 287 287 286 286 286 286 286 287 287 287 287 287 287
293 292 292 291 291 291 291 291 291 290 290 289 288 286 286 285 285 285 285 285 286 286 287 287 287 287 287 286 286 286 286 286 287 287 287 287 287 287 287 287 287 287 287 287 287 287 287 286 286 287 286 286 285 285 285 286 286 286 287 286 287 287
291 290 290 290 290 290 290 291 290 289 288 287 286 285 285 285 285 285 285 285 285 286 286 286 286 286 285 285 285 286 286 286 287 287 287 286 287 286 286 286 286 286 287 287 286 286 286 285 285 285 285 284 284 284 284 285 285 286 286 286 286 286
289 288 287 288 289 289 289 289 289 288 286 285 284 284 284 284 285 285 284 284 284 285 285 285 284 284 284 285 286 286 287 286 286 286 286 286 286 286 286 285 285 285 285 286 286 285 284 284 284 283 283 283 283 283 283 284 285 285 285 286 286 286
286 285 285 286 288 288 288 288 288 286 284 283 283 284 284 284 284 284 283 284 284 284 284 284 284 284 285 286 286 286 286 286 286 286 285 285 285 284 284 283 282 282 282 283 284 283 283 282 282 282 282 282 282 282 282 284 284 284 285 285 286 286
283 283 283 284 286 287 287 287 286 284 282 282 283 283 283 283 283 283 282 283 283 283 283 284 285 285 285 286 286 286 286 286 285 285 284 283 282 281 281 280 280 280 280 280 281 281 281 281 281 281 281 281 281 281 282 283 283 283 283 283 283 284
283 282 281 282 284 284 285 285 284 283 281 282 282 281 281 282 282 282 282 282 283 284 284 285 285 285 285 285 285 285 285 284 284 283 282 281 280 279 278 278 278 278 278 278 279 279 279 280 280 279 280 280 280 280 280 281 281 281 281 281 282 282
282 281 280 280 281 282 282 282 282 282 281 281 280 280 281 282 281 282 282 283 284 285 285 285 285 285 285 285 284 284 283 282 281 280 279 279 278 277 277 277 277 277 277 278 278 278 278 278 278 279 279 279 279 279 279 280 280 280 281 281 281 281
280 279 278 278 279 280 280 280 281 281 280 280 280 280 281 282 282 283 284 284 284 285 284 284 284 284 284 283 283 283 282 281 279 278 277 277 277 276 276 276 276 276 277 277 277 277 277 277 278 278 278 278 278 279 279 280 280 280 280 280 281 281
280 278 277 277 277 278 278 278 279 279 279 279 280 281 282 282 283 283 284 283 283 283 282 282 282 282 282 282 282 281 281 280 278 277 276 276 276 276 276 276 276 276 276 276 276 276 277 277 277 277 277 278 278 279 279 279 279 279 279 280 280 280
279 278 277 277 277 277 277 277 278 278 278 279 280 281 282 283 283 283 282 282 281 281 281 281 280 280 280 280 279 279 278 278 277 276 276 276 275 275 275 276 276 276 276 276 276 276 276 276 276 277 277 278 278 278 278 278 278 279 279 279 279 280
279 278 277 277 277 276 276 277 277 277 278 280 281 281 281 282 282 281 280 279 279 279 279 278 278 277 277 277 277 277 277 277 277 276 276 275 275 274 274 275 275 275 275 275 276 276 276 276 276 276 276 277 277 277 277 277 278 278 278 279 279 280
277 277 277 277 276 275 276 276 277 277 278 279 280 280 280 280 280 279 278 278 278 278 277 276 275 275 275 275 276 276 277 277 277 277 275 274 274 274 274 274 274 274 274 275 275 274 275 275 275 275 275 275 275 276 276 276 277 277 278 278 279 279
276 276 277 277 275 275 275 276 277 277 278 278 278 278 279 279 279 279 278 277 277 276 275 274 274 274 275 275 275 275 274 274 274 275 275 274 273 273 273 273 273 273 273 273 273 273 273 273 273 273 274 274 274 275 275 275 276 276 277 277 277 278
276 277 277 276 275 274 275 276 276 276 276 277 277 278 278 279 279 278 277 276 275 275 274 274 274 274 274 274 273 272 271 270 270 271 272 273 273 273 272 272 272 271 271 271 271 271 271 272 272 272 273 273 273 273 274 275 275 276 276 275 276 276
277 276 276 276 275 274 274 275 275 275 275 276 277 277 278 279 278 277 276 275 274 274 273 273 273 273 272 271 270 270 269 269 268 268 269 270 271 271 270 270 270 270 269 269 270 270 270 271 271 271 272 272 272 273 273 274 274 274 273 274 274 275
276 275 274 275 274 273 273 274 274 275 275 276 277 277 278 278 276 275 275 274 273 272 272 272 272 272 271 271 270 269 269 269 268 268 268 268 268 268 268 268 269 269 268 268 269 269 269 270 270 270 271 271 272 272 273 273 272 272 272 272 273 274
274 273 273 273 273 272 272 273 274 275 275 276 277 277 277 276 275 274 274 272 271 271 271 271 271 271 271 270 270 269 268 268 268 267 267 267 267 267 267 267 268 268 268 268 268 268 268 269 269 270 270 271 271 271 271 271 271 271 272 272 273 273
Wind_Speed
11 12 13 13 14 15 15 15 16 16 16 15 16 16 15 14 13 13 12 10 10 9 7 7 6 5 5 5 4 4 4 3 3 3 3 3 4 5 6 7 8 9 10 11 12 12 12 13 13 14 15 16 17 18 18 18 18 19 21 21 22 23
11 12 12 13 14 15 15 15 16 16 16 15 16 16 15 15 14 13 13 12 11 11 10 10 10 10 9 9 9 8 8 7 6 6 5 6 7 8 9 10 11 12 12 13 13 13 14 14 14 14 15 15 17 18 19 19 19 19 21 22 22 22
12 12 12 13 14 14 14 15 15 15 15 15 15 15 15 15 15 14 14 14 13 13 13 13 13 13 13 12 12 11 11 10 9 9 8 9 10 11 12 13 13 13 14 14 14 15 15 16 16 16 15 15 16 16 17 18 19 19 20 22 23 22
12 12 13 13 14 14 14 14 14 14 14 14 14 15 16 15 15 15 15 15 15 15 15 15 15 15 14 14 14 13 13 12 12 11 11 11 12 13 14 14 14 14 14 15 15 15 15 16 16 17 17 17 17 18 18 19 20 20 21 22 23 24
12 13 13 13 14 14 14 14 14 15 14 14 15 16 16 16 16 16 16 17 17 17 17 16 16 16 16 16 16 15 15 14 13 13 13 13 13 14 14 14 14 14 14 14 15 15 16 17 17 18 19 19 20 20 20 21 21 21 23 23 24 25
12 13 13 14 14 14 14 14 15 15 15 15 16 17 17 17 17 17 18 18 19 18 18 18 18 18 18 18 17 17 16 15 14 14 13 13 13 13 13 13 13 14 15 15 16 17 17 18 19 20 20 20 21 21 22 23 23 23 24 25 26 26
11 12 13 13 14 14 14 14 15 16 16 16 17 18 17 17 18 18 18 19 20 19 19 19 19 18 19 18 17 17 16 15 14 13 12 12 12 13 13 14 14 15 16 17 18 19 20 21 21 22 22 22 22 23 24 25 26 27 28 28 28 28
10 12 13 13 14 14 15 15 15 17 17 18 18 18 18 18 18 19 19 20 20 20 20 19 18 18 17 16 15 15 14 14 13 12 12 13 13 14 15 15 16 17 18 19 20 21 22 22 23 23 23 24 24 25 26 27 28 29 30 30 31 31
9 12 13 14 14 14 15 15 16 17 18 18 18 19 19 18 19 20 20 20 21 20 19 18 17 17 16 15 14 14 14 13 13 13 13 14 14 15 16 17 18 18 19 20 20 21 21 22 22 22 22 23 24 25 26 27 28 29 30 30 31 32
8 12 14 15 15 15 15 15 16 17 18 18 18 19 19 19 19 20 20 20 20 19 18 17 16 16 15 14 13 13 14 14 14 14 14 14 15 16 17 18 18 18 19 19 19 20 21 21 21 21 22 23 23 24 25 26 27 29 30 30 31 31
9 13 15 16 17 17 16 16 16 17 18 18 18 18 18 19 20 20 20 19 19 18 16 15 15 15 14 13 13 13 14 14 14 15 15 15 16 17 17 18 19 19 20 20 21 21 22 22 22 22 22 23 23 24 25 26 27 29 30 32 32 33
11 15 16 17 18 17 17 16 16 17 17 17 18 18 18 18 19 19 19 19 18 16 15 14 14 14 14 13 13 14 14 15 15 15 16 16 16 17 18 19 20 21 22 23 23 24 24 25 25 24 24 24 24 25 26 27 28 29 31 33 34 35
12 16 16 17 18 18 18 17 17 17 18 18 18 18 17 17 18 18 18 18 17 15 14 14 14 14 14 14 14 14 15 15 15 16 16 16 17 18 20 21 22 23 23 24 25 25 26 27 27 28 28 28 28 28 28 29 31 32 32 33 35 36
12 15 17 18 19 18 19 19 18 18 19 19 18 18 17 16 16 17 17 16 15 14 14 13 13 13 13 13 13 14 15 15 15 16 17 17 19 20 22 23 23 24 24 25 25 26 27 28 29 29 30 30 30 30 30 31 32 34 35 35 35 37
15 18 20 20 20 20 19 20 20 20 19 20 19 18 17 16 16 16 16 15 13 13 13 12 13 13 13 13 13 14 15 16 17 18 18 19 21 22 23 24 24 25 25 26 26 27 28 29 30 30 31 31 32 32 31 33 34 35 36 37 37 38
18 20 21 22 21 21 20 20 21 21 20 19 19 18 17 16 16 15 14 13 12 11 11 12 13 13 13 13 14 14 16 17 18 19 19 20 22 23 24 24 25 26 26 27 28 29 30 30 31 32 32 33 34 34 33 34 36 37 38 39 39 39
21 22 22 22 22 22 21 21 22 21 19 18 18 17 16 16 15 14 13 12 11 10 11 12 12 12 13 13 14 15 17 18 18 19 19 21 22 23 24 25 26 27 28 29 30 31 32 32 32 34 34 34 35 36 36 37 37 39 41 42 42 42
25 25 25 24 23 23 23 22 21 21 19 18 17 17 16 15 14 13 12 10 9 9 10 12 12 12 13 13 15 16 17 18 19 19 20 22 23 24 25 26 27 28 30 31 31 32 35 36 34 34 36 37 36 37 38 39 39 40 42 44 46 45
26 27 26 25 24 24 23 22 21 21 20 17 16 16 15 14 13 12 10 8 7 8 9 10 11 12 13 14 15 16 17 18 19 20 21 23 25 26 27 28 29 29 30 32 33 33 36 39 38 36 37 39 38 38 39 40 40 41 42 45 47 48
27 27 28 27 25 23 23 22 21 21 20 17 15 15 14 13 11 10 8 6 5 6 8 10 11 12 13 14 15 16 17 19 20 21 22 24 26 27 27 29 30 31 31 33 34 35 36 40 41 39 38 39 39 38 38 39 39 40 42 45 47 49
29 28 27 27 24 22 22 22 20 20 19 16 14 14 13 12 10 9 7 5 4 5 7 10 11 12 13 14 15 16 18 19 20 22 23 24 25 27 28 29 31 33 34 34 35 36 37 39 42 42 40 39 39 39 38 38 38 39 41 43 46 49
30 28 26 25 24 22 22 21 21 20 19 16 15 14 12 10 9 8 6 5 4 5 7 10 11 12 13 14 16 17 18 19 21 22 24 25 26 28 29 30 32 35 36 36 36 38 38 39 42 44 43 40 39 39 38 38 37 38 40 41 43 46
28 27 25 24 24 23 22 22 22 20 18 16 15 13 11 10 9 7 6 5 5 6 9 10 11 12 13 15 16 17 18 20 22 23 25 26 27 29 30 32 33 35 37 38 39 39 40 40 40 42 43 41 39 39 37 36 37 37 38 40 41 43
26 26 23 22 23 23 22 22 22 20 18 16 14 12 11 10 8 7 6 5 6 8 10 11 12 13 14 15 16 17 18 20 21 23 24 26 28 29 31 32 33 35 38 40 41 41 40 41 41 41 41 40 40 40 37 35 35 35 35 37 39 40
25 24 22 21 22 23 22 23 22 20 17 15 13 12 10 8 7 7 6 6 7 9 11 12 13 14 15 15 16 17 19 20 21 23 24 26 28 30 31 31 31 33 36 40 43 43 41 40 40 41 40 40 41 40 37 33 33 33 32 34 36 38
25 23 21 20 21 22 22 22 22 20 17 14 12 11 9 7 7 7 7 7 9 10 11 12 13 13 14 15 16 18 19 21 22 24 25 27 28 29 30 30 29 30 33 36 40 43 43 42 42 42 41 41 41 40 36 33 33 33 33 34 36 37
27 25 22 19 20 21 21 21 21 19 16 13 12 11 9 8 8 8 8 8 9 10 10 10 11 12 14 15 17 19 20 22 24 25 26 27 28 27 27 28 28 28 30 32 35 39 44 45 44 44 43 42 41 39 36 34 35 36 36 36 38 39
27 25 22 19 18 19 19 18 17 17 15 13 11 9 8 8 8 8 8 9 9 9 9 9 11 12 14 15 17 19 20 22 23 24 25 26 26 26 25 26 27 27 28 30 32 36 42 45 45 44 43 43 41 40 40 40 40 40 40 40 40 40
24 23 22 20 18 18 19 17 16 15 14 12 10 9 9 8 8 8 8 8 8 8 9 11 12 13 14 16 17 19 20 21 22 23 23 23 24 25 24 24 24 26 28 31 33 36 40 43 43 42 42 43 43 44 46 46 45 44 43 42 41 42
23 22 22 20 19 18 18 16 15 14 12 11 10 9 9 8 8 8 7 7 8 9 10 11 12 14 15 17 18 20 21 22 22 22 21 21 20 22 24 25 25 26 27 30 32 35 38 41 42 41 41 42 44 46 47 47 47 47 45 44 43 45
22 22 21 20 20 19 17 15 14 13 11 10 10 9 8 8 8 7 7 7 8 9 10 11 12 14 16 17 19 20 21 21 21 22 21 18 16 17 19 22 24 26 27 29 30 30 32 37 41 43 43 43 44 44 45 45 45 45 44 44 45 46
22 22 21 21 20 19 16 15 13 12 11 10 10 8 8 8 7 7 7 7 8 9 10 11 12 13 15 17 19 22 23 22 22 21 19 17 15 15 16 17 20 22 24 27 30 29 28 32 37 41 42 43 43 44 44 44 44 43 43 43 43 44
21 21 21 21 20 18 16 15 13 12 11 10 9 8 8 8 7 7 8 8 8 8 9 10 11 12 14 16 18 21 25 27 27 25 20 17 18 20 20 19 19 19 19 22 27 31 32 33 35 36 38 39 40 41 43 44 45 44 43 42 42 40
22 22 22 22 21 18 17 15 13 12 11 9 8 8 7 7 7 7 7 7 7 7 7 8 10 12 14 16 17 19 22 26 30 31 28 24 23 24 22 19 20 21 20 19 23 28 33 37 38 39 39 38 38 39 40 41 43 44 43 42 39 35
23 22 22 22 21 19 17 15 14 12 11 9 8 7 7 6 6 6 6 6 6 6 6 7 9 11 13 14 16 17 19 21 24 29 32 33 33 30 24 20 23 26 25 25 26 26 29 33 35 37 39 39 39 39 39 39 40 40 38 38 35 32
23 22 22 22 21 19 17 16 15 13 11 10 8 7 6 6 6 5 5 5 5 5 6 7 9 10 11 12 13 15 17 19 19 21 26 32 36 35 31 28 28 29 29 32 33 31 29 29 31 33 35 37 38 39 39 39 38 36 34 33 32 32
24 23 22 22 21 19 18 17 15 13 11 9 8 7 6 6 6 5 5 5 5 4 5 6 8 9 10 12 13 14 16 17 19 20 21 24 27 31 33 35 35 34 32 32 33 33 32 32 32 32 33 33 34 35 36 36 37 36 35 33 32 31
24 22 22 22 21 20 19 16 14 13 11 10 9 8 7 7 6 5 5 5 4 3 5 6 7 9 10 11 12 14 14 16 17 18 20 21 22 25 29 34 37 40 39 35 31 31 34 35 34 34 33 31 30 31 31 32 33 34 35 35 34 34
Wind_Direction
98 101 102 104 108 109 110 114 116 118 122 126 128 126 126 128 131 133 133 131 128 123 121 121 118 114 111 111 109 100 91 76 52 34 26 22 19 13 10 8 4 2 360 355 351 347 342 337 333 332 332 328 324 321 318 313 306 300 297 297 295 293
100 104 107 105 107 107 109 113 112 112 114 117 119 119 121 122 122 124 125 124 124 122 120 118 116 115 114 113 112 103 93 84 71 58 47 45 45 40 36 31 26 21 16 11 7 2 358 355 351 346 338 331 326 323 322 321 319 314 311 310 309 306
102 105 108 107 107 107 107 109 109 109 110 111 113 116 117 117 117 119 121 121 122 121 120 119 117 114 111 107 102 95 88 81 72 65 58 54 53 50 46 41 35 30 25 21 18 14 10 6 1 356 348 341 336 330 326 325 323 321 319 318 317 316
110 109 109 107 106 105 104 106 106 106 107 109 112 113 112 111 112 114 115 117 118 116 115 114 112 108 105 101 96 91 86 81 75 70 66 60 55 52 48 43 39 35 31 28 24 20 16 12 7 3 358 353 348 345 342 338 334 330 327 325 324 322
116 113 110 107 106 104 104 106 106 105 106 110 113 112 109 109 110 112 114 114 112 111 111 110 108 106 103 99 95 90 85 80 76 71 65 61 55 51 47 43 39 35 31 28 24 20 16 12 9 5 1 357 353 350 348 343 338 335 331 328 326 323
118 114 111 109 108 107 108 109 110 110 110 113 114 112 111 111 111 112 114 113 110 109 110 107 106 104 101 97 93 88 83 77 73 68 61 56 52 48 44 40 36 31 27 24 21 17 14 10 7 5 1 356 352 348 346 344 339 335 331 327 326 324
123 120 118 116 114 113 113 115 117 116 115 116 117 115 114 114 113 113 113 112 110 108 105 103 101 99 95 92 89 85 81 74 67 61 55 50 45 42 39 34 31 27 24 21 18 15 12 9 5 3 360 356 353 349 344 342 338 335 332 329 327 326
126 125 122 120 119 118 116 117 120 121 119 119 120 119 117 115 115 115 113 111 108 104 101 99 96 94 90 86 83 79 76 68 60 54 49 44 40 37 34 30 27 24 21 20 17 14 11 8 5 2 358 354 350 347 343 340 337 333 332 330 329 327
131 128 125 122 122 120 120 120 122 123 122 122 122 121 119 118 118 117 113 110 106 102 99 96 91 89 85 80 77 73 70 65 58 52 46 41 37 33 30 28 25 22 21 18 16 13 10 8 5 1 357 353 348 344 341 337 335 332 331 329 328 327
135 130 128 127 126 125 125 126 125 125 124 123 123 122 120 120 120 117 112 109 105 99 96 94 90 87 82 77 73 69 67 63 56 50 45 40 36 32 27 25 21 19 18 16 14 12 9 7 5 1 356 352 347 342 337 334 332 330 328 327 326 324
141 136 134 133 132 129 128 128 127 125 123 122 123 121 120 121 119 115 112 108 103 98 95 92 88 84 79 75 70 64 62 58 52 46 41 36 32 28 25 21 17 13 12 11 9 8 7 5 3 0 355 351 345 339 335 331 329 327 325 324 324 322
144 141 139 138 137 134 132 130 129 127 124 123 123 120 119 120 118 114 111 106 102 99 96 91 85 81 75 68 62 57 53 49 45 39 35 31 26 21 18 15 13 11 8 6 5 3 3 2 359 356 352 348 344 338 333 330 327 326 324 322 322 321
146 145 143 142 141 139 136 135 133 130 126 124 124 121 119 120 117 113 109 105 103 100 94 88 81 75 69 61 54 49 44 41 37 33 28 25 21 17 14 11 10 9 5 2 0 358 357 356 355 352 349 346 343 338 333 329 327 325 323 321 319 319
151 150 146 143 143 142 141 140 137 133 130 127 125 123 121 119 114 110 106 102 100 96 91 85 77 71 64 56 50 44 40 36 31 28 24 20 17 14 11 9 6 5 2 358 355 353 352 352 352 350 347 344 342 339 334 329 326 324 322 320 318 317
155 152 148 146 145 144 145 145 140 136 133 130 126 125 124 119 111 107 102 99 96 92 88 83 76 69 61 53 46 39 36 31 26 24 20 16 14 11 8 6 3 1 359 355 352 349 347 349 350 348 346 344 341 339 335 330 327 324 322 320 319 316
151 149 148 148 147 146 147 147 142 136 133 131 128 126 124 119 113 106 100 97 95 90 87 81 73 65 57 49 41 34 30 27 23 20 18 14 11 8 5 2 360 358 357 353 349 346 345 347 348 346 345 343 341 338 334 330 327 324 322 321 319 317
149 147 147 148 149 148 146 145 140 135 133 132 130 126 121 118 113 106 100 97 92 87 83 76 69 61 52 43 37 31 28 25 21 18 15 12 8 5 2 360 358 356 354 352 348 344 343 344 346 345 343 341 339 337 333 329 326 323 322 320 318 316
152 148 147 146 147 146 143 142 141 138 134 132 130 125 119 115 112 106 100 96 88 80 75 70 64 55 47 40 35 30 26 23 20 15 12 8 5 3 0 358 356 353 351 350 347 343 341 341 343 342 340 339 337 335 331 328 325 322 320 318 317 316
151 147 146 144 145 146 143 143 145 141 135 130 126 124 120 115 113 109 105 98 86 74 68 64 59 51 44 38 32 28 23 20 18 14 9 5 2 1 359 355 353 351 348 346 345 341 338 338 339 339 337 336 335 333 329 326 323 320 317 316 316 314
148 146 146 144 143 146 145 146 146 141 133 128 126 126 124 120 119 118 115 105 86 70 61 58 55 48 42 36 30 26 22 18 15 11 7 3 359 357 356 352 349 347 345 343 341 339 335 334 334 335 334 333 332 330 328 325 322 318 315 314 314 312
146 145 145 142 142 146 147 147 146 140 133 132 135 134 131 129 130 129 125 114 91 72 63 58 53 47 42 36 29 25 20 16 13 8 4 0 357 354 352 349 345 342 341 340 337 335 333 331 330 330 330 329 329 328 327 325 321 316 314 313 312 310
143 141 141 140 143 146 148 147 145 140 138 143 147 143 138 139 139 134 130 121 100 80 69 62 54 46 41 34 28 24 18 12 8 4 0 357 354 351 348 346 343 338 336 335 333 332 330 329 328 326 326 327 327 327 326 324 319 314 313 312 310 307
140 138 137 141 144 147 150 150 146 143 146 150 150 147 147 148 144 135 130 123 103 80 68 61 53 45 38 30 24 20 14 9 5 1 358 354 350 347 344 342 340 337 333 331 330 330 329 328 326 325 326 327 327 326 325 322 317 314 312 310 307 304
135 134 135 142 146 146 151 153 148 148 153 153 151 153 153 148 140 134 130 118 95 75 64 56 49 42 33 24 18 13 8 4 1 357 354 350 346 344 342 342 341 338 333 330 329 328 328 327 327 325 326 326 325 325 324 320 316 314 313 309 305 303
131 132 135 143 148 149 153 154 151 152 155 155 155 157 152 143 137 133 123 104 83 69 60 51 43 35 26 18 12 7 3 358 355 353 351 348 347 345 343 344 343 339 333 330 329 328 327 327 326 325 325 325 325 325 324 321 317 316 316 312 307 306
131 131 134 141 148 151 156 158 156 154 155 156 158 157 150 142 137 126 108 91 76 65 55 46 37 28 19 12 6 1 358 354 352 352 351 350 350 347 344 343 342 338 333 329 326 326 327 326 325 325 325 325 325 325 324 321 318 317 316 313 308 306
135 134 134 140 147 150 156 161 159 153 153 158 159 156 150 141 128 113 97 84 72 60 50 38 29 22 14 8 3 359 356 353 351 350 350 350 349 347 343 340 339 336 331 326 324 324 325 325 325 325 325 326 326 325 323 319 317 315 314 311 308 305
138 137 135 138 146 150 152 157 158 155 156 160 157 151 144 132 118 105 92 79 64 52 41 29 21 17 11 5 3 0 357 356 353 350 349 349 347 344 341 338 337 335 329 325 323 323 322 323 323 323 325 326 326 325 323 320 318 316 315 312 310 308
139 139 138 139 146 149 149 153 160 161 159 156 151 144 136 124 111 98 85 72 55 41 33 25 16 12 8 3 0 358 356 356 354 349 347 346 344 341 339 337 335 333 329 325 323 322 321 320 320 322 325 326 326 324 323 321 319 318 318 316 314 313
143 144 143 145 148 151 153 158 163 161 156 150 146 141 131 119 106 93 79 65 51 39 30 24 15 9 6 2 359 357 355 354 352 348 346 346 343 339 337 335 332 329 326 321 320 320 320 318 318 321 323 324 323 321 320 319 318 318 318 317 315 313
150 149 148 151 153 154 159 163 161 157 154 149 143 136 128 119 109 96 81 64 50 39 30 24 17 11 6 2 359 357 354 352 350 346 344 347 348 341 334 329 325 325 324 319 316 316 316 314 315 317 319 319 318 318 317 316 315 315 315 315 315 314
155 154 153 154 156 159 163 165 161 157 156 150 142 136 130 123 112 98 84 64 49 40 31 24 20 15 10 4 359 355 351 349 349 349 348 350 350 344 337 329 323 323 322 319 317 316 311 307 308 312 316 317 317 317 317 316 315 315 315 315 316 314
159 159 157 156 159 164 166 166 163 160 157 151 142 135 129 121 111 96 80 63 49 40 31 24 20 15 11 7 2 356 352 348 346 349 353 354 351 348 348 346 340 334 328 323 321 319 314 311 311 313 315 316 317 318 318 317 317 318 318 319 319 316
164 164 162 162 165 169 169 166 165 163 157 150 142 134 126 117 106 90 76 64 54 43 33 27 22 16 11 8 4 2 358 353 348 347 347 348 349 350 352 353 350 345 339 330 325 321 318 317 317 318 318 319 319 319 319 319 319 319 321 323 322 318
168 168 167 167 170 172 171 168 166 164 158 151 145 139 131 117 102 89 80 73 62 48 36 29 23 18 14 10 7 4 3 0 354 347 342 341 344 349 351 350 348 345 340 333 327 322 317 316 318 319 319 320 320 321 321 320 320 320 322 325 325 319
171 170 171 172 172 172 172 171 168 164 160 154 148 143 135 121 106 99 94 84 69 53 41 31 25 21 17 14 12 8 4 2 359 351 344 340 340 341 341 340 341 342 340 336 332 327 322 320 319 319 319 319 319 321 322 322 322 322 324 325 323 317
172 172 174 175 174 173 174 173 169 164 160 156 153 151 144 129 119 117 109 94 79 61 47 36 29 25 21 17 14 11 6 2 358 352 347 341 336 332 330 330 333 336 337 336 333 330 327 325 324 321 321 321 321 322 324 325 324 324 324 323 321 316
173 174 176 176 175 175 175 173 168 165 163 164 164 160 151 140 134 131 122 112 102 75 57 48 38 30 26 22 16 11 6 1 356 350 344 338 331 326 323 325 328 333 336 336 335 333 330 328 326 325 324 325 325 326 326 324 321 319 319 318 317 314